Location: Pinawa
(50.1500°N, 95.8830°W)
Time: 12:11:39
(UTC-05:00)

ISS - All Passes

Search period start: 26 July 2014 00:00
Search period end: 05 August 2014 00:00
Orbit: 411 x 420 km, 51.6° (Epoch: 26 July)

Date Brightness Start Highest point End Pass type
(mag) Time Alt. Az. Time Alt. Az. Time Alt. Az.
26 Jul - 01:55:19 10° SSW 01:58:14 28° SE 02:01:09 10° E visible
26 Jul - 03:31:20 10° WSW 03:34:43 88° NNW 03:38:06 10° ENE visible
26 Jul - 05:08:13 10° W 05:11:35 67° N 05:14:57 10° E daylight
26 Jul - 06:45:00 10° WNW 06:48:19 56° SSW 06:51:37 10° SE daylight
26 Jul - 08:22:44 10° WSW 08:24:29 14° SW 08:26:14 10° S daylight
27 Jul - 01:07:10 10° S 01:09:36 19° SE 01:12:04 10° E visible
27 Jul - 02:42:35 10° WSW 02:45:56 73° SSE 02:49:18 10° ENE visible
27 Jul - 04:19:23 10° W 04:22:44 65° N 04:26:06 10° E visible
27 Jul - 05:56:11 10° WNW 05:59:33 76° SSW 06:02:55 10° ESE daylight
27 Jul - 07:33:21 10° W 07:35:55 20° SW 07:38:28 10° SSE daylight
28 Jul - 00:19:32 10° SSE 00:21:02 13° SE 00:22:33 10° ESE visible
28 Jul - 01:53:54 10° SW 01:57:11 53° SSE 02:00:29 10° ENE visible
28 Jul - 03:30:32 10° W 03:33:54 68° N 03:37:16 10° ENE visible
28 Jul - 05:07:23 10° WNW 05:10:46 85° NNE 05:14:09 10° ESE visible
28 Jul - 06:44:17 10° W 06:47:17 29° SSW 06:50:15 10° SSE daylight
29 Jul - 01:05:21 10° SW 01:08:28 37° SSE 01:11:37 10° E visible
29 Jul - 02:41:42 10° W 02:45:04 76° N 02:48:27 10° ENE visible
29 Jul - 04:18:35 10° WNW 04:21:57 73° N 04:25:20 10° E visible
29 Jul - 05:55:23 10° W 05:58:36 42° SSW 06:01:48 10° SE daylight
30 Jul - 00:16:59 10° SSW 00:19:49 26° SE 00:22:40 10° E visible
30 Jul - 01:52:54 10° WSW 01:56:16 89° S 01:59:39 10° ENE visible
30 Jul - 03:29:46 10° W 03:33:07 66° N 03:36:29 10° E visible
30 Jul - 05:06:33 10° WNW 05:09:53 60° SSW 05:13:12 10° ESE visible
30 Jul - 06:44:08 10° WSW 06:46:05 15° SW 06:48:03 10° S daylight
30 Jul - 23:28:54 10° S 23:31:12 18° SE 23:33:31 10° E night (unlit)
31 Jul - 01:04:09 10° WSW 01:07:30 69° SSE 01:10:51 10° ENE visible
31 Jul - 02:40:56 10° W 02:44:17 65° N 02:47:39 10° E visible
31 Jul - 04:17:44 10° WNW 04:21:07 80° SSW 04:24:29 10° ESE visible
31 Jul - 05:54:50 10° W 05:57:30 22° SW 06:00:09 10° SSE daylight
31 Jul - 22:41:28 10° SSE 22:42:39 12° SE 22:43:50 10° ESE night (unlit)
01 Aug - 00:15:30 10° SW 00:18:45 50° SSE 00:22:01 10° ENE visible
01 Aug - 01:52:06 10° W 01:55:27 69° N 01:58:49 10° ENE visible
01 Aug - 03:28:57 10° WNW 03:32:19 82° NNE 03:35:42 10° ESE visible
01 Aug - 05:05:49 10° W 05:08:52 32° SSW 05:11:54 10° SSE visible
01 Aug - 23:26:59 10° SW 23:30:03 35° SSE 23:33:09 10° E night (unlit)
02 Aug - 01:03:16 10° W 01:06:38 79° NNW 01:10:00 10° ENE visible
02 Aug - 02:40:09 10° WNW 02:43:30 71° N 02:46:52 10° E visible
02 Aug - 04:16:56 10° WNW 04:20:11 45° SSW 04:23:25 10° SE visible
02 Aug - 05:55:45 10° SW 05:56:14 10° SW 05:56:43 10° SW daylight
02 Aug - 22:38:40 10° SSW 22:41:24 24° SE 22:44:10 10° E visible
03 Aug - 00:14:28 10° WSW 00:17:50 85° SSE 00:21:12 10° ENE visible
03 Aug - 01:51:19 10° W 01:54:40 66° N 01:58:02 10° E visible
03 Aug - 03:28:06 10° WNW 03:31:27 64° SSW 03:34:47 10° ESE visible
03 Aug - 05:05:33 10° W 05:07:42 16° SW 05:09:49 10° S visible
03 Aug - 21:50:40 10° S 21:52:49 16° SE 21:54:58 10° E visible
03 Aug - 23:25:45 10° WSW 23:29:04 65° SSE 23:32:24 10° ENE visible
04 Aug - 01:02:30 10° W 01:05:50 66° N 01:09:12 10° E visible
04 Aug - 02:39:18 10° WNW 02:42:41 84° SSW 02:46:03 10° ESE visible
04 Aug - 04:16:21 10° W 04:19:06 23° SW 04:21:50 10° SSE visible
04 Aug - 21:03:37 10° SE 21:04:16 10° SE 21:04:55 10° ESE daylight
04 Aug - 22:37:07 10° SW 22:40:20 46° SSE 22:43:34 10° ENE visible
